Flag for Laos Weather past 2 weeks in Vientiane, Laos

Now
93 °F

Scattered clouds.


Feels Like: 103 °F
Forecast: 82 / 105 °F
Wind: 2 mph from Southeast

Location: Vientiane Airport


UV Index: 10 (Very high)

Visibility: 4 mi


Pressure: 29.77 "Hg

Humidity: 53%

Dew point: 73 °F

Location of VientianeLocation

Historic Weather in Vientiane

°F

Vientiane temperature yesterday

Maximum temperature yesterday: 102 °F (at 4:00 PM)
Minimum temperature yesterday: 82 °F (at 6:00 AM)
Average temperature yesterday: 94 °F

Past Weeks' High & Low Weather Summary

 TemperatureHumidityPressure
High102 °F (Apr 23, 4:00 PM)100% (Apr 16, 7:00 AM)29.92 "Hg (Apr 16, 7:00 AM)
Low75 °F (Apr 14, 6:00 AM)42% (Apr 23, 4:00 PM)29.59 "Hg (Apr 23, 5:00 PM)
Average88 °F67%29.76 "Hg
* Reported Apr 9 10:00 AM — Apr 24 10:30 AM, Vientiane, Weather by CustomWeather, © 2014

Note: Actual official high and low records may vary slightly from our data, if they occured in-between our weather recording intervals... More about our weather records

Advertising

Historic Weather Conditions — Data for Previous 24 hours

 ConditionsComfort  
Time TempWeatherWind HumidityBarometerVisibility
10:30 AM
Apr 24
90 °FFog.5 mph63%29.80 "Hg3 mi
10:00 AM90 °FFog.5 mph63%29.80 "Hg3 mi
9:30 AM88 °FFog.5 mph66%29.77 "Hg2 mi
9:00 AM88 °FFog.5 mph66%29.77 "Hg2 mi
8:30 AM86 °FFog.2 mph66%29.74 "Hg2 mi
8:00 AM86 °FFog.2 mph66%29.74 "Hg2 mi
7:30 AM84 °FFog.2 mph74%29.71 "Hg2 mi
7:00 AM84 °FFog.2 mph74%29.71 "Hg2 mi
6:30 AM82 °FFog.2 mph84%29.68 "Hg2 mi
6:00 AM82 °FFog.2 mph84%29.68 "Hg2 mi
12:00 AM88 °FFog.2 mph70%29.71 "Hg1 mi
11:00 PM
Apr 23
90 °FFog.2 mph67%29.71 "Hg1 mi
10:30 PM90 °FFog.2 mph71%29.71 "Hg2 mi
10:00 PM91 °FFog.2 mph67%29.71 "Hg2 mi
9:30 PM91 °FFog.2 mph59%29.65 "Hg2 mi
9:00 PM93 °FFog.2 mph56%29.65 "Hg2 mi
8:30 PM93 °FFog.2 mph56%29.65 "Hg2 mi
8:00 PM95 °FFog.2 mph53%29.65 "Hg2 mi
7:30 PM95 °FFog.2 mph56%29.65 "Hg2 mi
7:00 PM97 °FFog.2 mph53%29.65 "Hg2 mi
6:30 PM97 °FFog.2 mph50%29.62 "Hg3 mi
6:00 PM99 °FScattered clouds.2 mph47%29.62 "Hg4 mi
5:30 PM99 °FPassing clouds.2 mph44%29.59 "Hg4 mi
5:00 PM100 °FPassing clouds.2 mph42%29.59 "Hg4 mi
4:30 PM102 °FScattered clouds.2 mph42%29.62 "Hg4 mi
4:00 PM102 °FScattered clouds.2 mph42%29.62 "Hg4 mi
3:30 PM100 °FScattered clouds.5 mph47%29.65 "Hg4 mi
3:00 PM100 °FScattered clouds.5 mph47%29.65 "Hg4 mi
2:30 PM100 °FScattered clouds.5 mph47%29.65 "Hg4 mi
2:00 PM100 °FScattered clouds.5 mph47%29.68 "Hg4 mi
1:00 PM100 °FPassing clouds.2 mph45%29.71 "Hg4 mi
12:30 PM99 °FPassing clouds.2 mph47%29.74 "Hg4 mi
12:00 PM97 °FPassing clouds.2 mph50%29.77 "Hg4 mi
Weather by CustomWeather, © 2014

See weather overview